This is the latest recevied weather packets stored in our database for station/object KE0PRS. If no packets are shown the sender has not sent any weather packets the latest 10 day(s).
| Time | Temp. | Humidity | Pressure | Rain* | Wind** | Luminosity | Snow |
|---|---|---|---|---|---|---|---|
| 1787711687 | 24.44° C | 82% | 1019.6 hPa | 0 mm | - | 0 W/m² | - |
| 1787711383 | 24.44° C | 82% | 1019.5 hPa | 0 mm | - | 0 W/m² | - |
| 1787711078 | 24.44° C | 82% | 1019.5 hPa | 0 mm | - | 0 W/m² | - |
| 1787710775 | 24.44° C | 81% | 1019.5 hPa | 0 mm | - | 0 W/m² | - |
| 1787710470 | 25° C | 81% | 1019.2 hPa | 0 mm | - | 0 W/m² | - |
| 1787710166 | 25° C | 80% | 1019.1 hPa | 0 mm | - | 0 W/m² | - |
| 1787709865 | 25° C | 80% | 1019.4 hPa | 0 mm | - | 0 W/m² | - |
| 1787709561 | 25° C | 80% | 1019.1 hPa | 0 mm | - | 0 W/m² | - |
| 1787709257 | 25° C | 79% | 1019.1 hPa | 0 mm | - | 0 W/m² | - |
| 1787708953 | 25.56° C | 78% | 1019 hPa | 0 mm | - | 0 W/m² | - |
| 1787708649 | 25.56° C | 78% | 1019 hPa | 0 mm | - | 0 W/m² | - |
| 1787708343 | 25.56° C | 77% | 1018.9 hPa | 0 mm | - | 0 W/m² | - |
| 1787708038 | 25.56° C | 77% | 1018.7 hPa | 0 mm | - | 0 W/m² | - |
| 1787707734 | 26.11° C | 76% | 1018.7 hPa | 0 mm | - | 0 W/m² | - |
| 1787707429 | 26.11° C | 75% | 1018.7 hPa | 0 mm | - | 1 W/m² | - |
| 1787707125 | 26.67° C | 73% | 1018.6 hPa | 0 mm | - | 2 W/m² | - |
| 1787706824 | 26.67° C | 72% | 1018.7 hPa | 0 mm | - | 4 W/m² | - |
| 1787706520 | 27.22° C | 70% | 1018.7 hPa | 0 mm | - | 6 W/m² | - |
| 1787706216 | 27.78° C | 69% | 1018.6 hPa | 0 mm | - | 9 W/m² | - |
| 1787705916 | 27.78° C | 67% | 1018.6 hPa | 0 mm | - | 13 W/m² | - |
| 1787705611 | 28.33° C | 66% | 1018.9 hPa | 0 mm | - | 19 W/m² | - |
| 1787705308 | 28.89° C | 64% | 1018.7 hPa | 0 mm | - | 24 W/m² | - |
| 1787705007 | 28.89° C | 63% | 1018.7 hPa | 0 mm | - | 29 W/m² | - |
| 1787704703 | 28.89° C | 63% | 1018.5 hPa | 0 mm | - | 34 W/m² | - |
| 1787704399 | 28.89° C | 62% | 1018.6 hPa | 0 mm | - | 42 W/m² | - |
* Rain latest hour (hover to see other rain measurements)
** Current wind speed in m/s (hover to see current wind gust speed)